Retour au catalogue

METEOR 2-2 DEB

ActifPO
NORAD 35423·DEBRIS·🇷🇺 Russia

Lancé Jan 6, 1977 depuis Plesetsk Cosmodrome

Loading…

Prochains Passages (prochaines 24 heures)

TLE

FraisSource: Space-Track

Époque: Sep 12, 2026, 16:08 UTC

1 35423U 77002F   26255.67260718  .00005210  00000-0  15199-2 0  9995
2 35423  81.2382 232.6514 0017960  68.5605 291.7498 14.43933451682686

Suivez METEOR 2-2 DEB en temps réel avec AllMySat

Download on the App Store